This demonstration page uses our WeatherBlox Daily Observations layout. Learn more.

Left ArrowRight Arrow

39.92423, -83.80882

Hourly Observations for January 5, 2022

Temp ( °F °C ) Dew Point ( °F °C ) Humidity (%) Winds ( mph kmh ) Pressure ( in mb ) Visibility ( mi km ) Precip ( " mm )
12:56 am 00:56 Clear 39 3.9 31 -0.6 73 73 SSW 21 33 29.79 1009 10 16 0.00 0.00
1:56 am 01:56 Clear 39 3.9 32 0 76 76 SSW 15 24 29.78 1008 10 16 0.00 0.00
2:56 am 02:56 Partly Cloudy 39 3.9 33 0.6 79 79 SSW 15 24 29.76 1008 10 16 0.00 0.00
3:56 am 03:56 Mostly Cloudy 40 4.4 34 1.1 79 79 SW 23 37 29.74 1007 10 16 0.00 0.00
4:07 am 04:07 Mostly Cloudy 39 4 34 1 81 81 SW 21 33 29.76 1008 10 16 0.00 0.00
4:17 am 04:17 Partly Cloudy 39 4 34 1 81 81 SW 18 30 29.76 1008 10 16 0.00 0.00
4:56 am 04:56 Clear 39 3.9 34 1.1 82 82 SW 21 33 29.73 1007 10 16 0.00 0.00
5:56 am 05:56 Clear 39 3.9 32 0 76 76 SW 17 28 29.73 1007 10 16 0.00 0.00
6:56 am 06:56 Clear 38 3.3 31 -0.6 76 76 SW 16 26 29.71 1006 10 16 0.00 0.00
7:56 am 07:56 Clear 38 3.3 31 -0.6 76 76 SSW 22 35 29.70 1006 10 16 0.00 0.00
8:56 am 08:56 Partly Cloudy 39 3.9 31 -0.6 73 73 SW 22 35 29.70 1006 10 16 0.00 0.00
9:56 am 09:56 Cloudy 40 4.4 31 -0.6 70 70 SW 20 31 29.72 1006 10 16 0.00 0.00
10:56 am 10:56 Cloudy 41 5 31 -0.6 67 67 WSW 32 52 29.72 1007 10 16 0.00 0.00
11:56 am 11:56 Cloudy 41 5 33 0.6 73 73 WSW 22 35 29.73 1007 10 16 0.00 0.00
12:56 pm 12:56 Mostly Cloudy 41 5 32 0 70 70 WSW 25 41 29.72 1007 10 16 0.00 0.00
1:56 pm 13:56 Mostly Sunny 41 5 30 -1.1 65 65 WSW 23 37 29.72 1007 10 16 0.00 0.00
2:56 pm 14:56 Mostly Cloudy 41 5 28 -2.2 60 60 WSW 21 33 29.72 1006 10 16 0.00 0.00
3:56 pm 15:56 Mostly Sunny 40 4.4 27 -2.8 60 60 W 18 30 29.72 1007 10 16 0.00 0.00
4:56 pm 16:56 Sunny 38 3.3 24 -4.4 57 57 W 16 26 29.76 1008 10 16 0.00 0.00
5:56 pm 17:56 Partly Cloudy 34 1.1 23 -5 64 64 W 18 30 29.80 1009 10 16 0.00 0.00
6:56 pm 18:56 Partly Cloudy 30 -1.1 23 -5 75 75 WNW 17 28 29.85 1011 10 16 0.00 0.00
7:56 pm 19:56 Cloudy 27 -2.8 21 -6.1 78 78 WNW 18 30 29.90 1013 10 16 0.00 0.00
8:07 pm 20:07 Cloudy 27 -3 19 -7 74 74 W 20 31 29.94 1014 10 16 0.00 0.00
8:56 pm 20:56 Mostly Cloudy 24 -4.4 18 -7.8 77 77 W 16 26 29.93 1014 10 16 0.00 0.00
9:19 pm 21:19 Partly Cloudy 23 -5 18 -8 80 80 W 20 31 29.98 1015 10 16 0.00 0.00
9:56 pm 21:56 Mostly Clear 21 -6.1 16 -8.9 81 81 W 18 30 29.94 1014 10 16 0.00 0.00
10:56 pm 22:56 Mostly Clear 20 -6.7 14 -10 78 78 WNW 16 26 29.99 1016 10 16 0.00 0.00
11:56 pm 23:56 Clear 19 -7.2 12 -11.1 74 74 W 15 24 30.01 1016 10 16 0.00 0.00

Powered by AerisWeather